Change the Weather History Date:

Sunday, February 6, 2011

  Actual Average Record
Temperature  
Mean Temperature 35 °F -  
Max Temperature 44 °F 42 °F 60 °F (2008)
Min Temperature 26 °F 22 °F 4 °F (1977)
Degree Days  
Heating Degree Days 30    
Moisture  
Dew Point 25 °F    
Average Humidity 71    
Maximum Humidity 86    
Minimum Humidity 49    
Precipitation  
Precipitation 0.00 in - - ()
Sea Level Pressure  
Sea Level Pressure 29.88 in    
Wind  
Wind Speed 5 mph (North)    
Max Wind Speed 20 mph    
Max Gust Speed 34 mph    
Visibility 10 miles    
Events      
Averages and records for this station are not official NWS values.
T = Trace of Precipitation, MM = Missing Value Source: NWS Daily Summary

Daily Weather History Graph

Daily Weather History Graph

Search for Another Location

Airport or City:

Trip Planner

Search our weather history database for the weather conditions in past years. The results will help you decide how hot, cold, wet, or windy it might be!

Date:

Astronomy

Feb. 06, 2011 Rise Set
Actual Time 7:23 AM EST 5:56 PM EST
Civil Twilight 6:56 AM EST 6:23 PM EST
Nautical Twilight 6:25 AM EST 6:54 PM EST
Astronomical Twilight 5:55 AM EST 7:24 PM EST
Moon 8:47 AM EST (2/6) 9:32 PM EST (2/6)
Length of Visible Light 11h 27m
Length of Day
10h 33m
Waxing Crescent, 12% of the Moon is Illuminated
Feb 6
Waxing Crescent
Feb 11
First Quarter
Feb 18
Full
Feb 24
Last Quarter
Mar 4
New

Hourly Weather History & Observations

Time (EST) Temp. Windchill Dew Point Humidity Pressure Visibility Wind Dir Wind Speed Gust Speed Precip Events Conditions
12:02 AM 28.4 °F 18.5 °F 23.0 °F 80% 29.79 in 10.0 mi NW 11.5 mph 17.3 mph N/A   Scattered Clouds
12:22 AM 28.4 °F 19.1 °F 23.0 °F 80% 29.80 in 10.0 mi NW 10.4 mph 17.3 mph N/A   Mostly Cloudy
12:42 AM 28.4 °F 18.5 °F 23.0 °F 80% 29.81 in 10.0 mi West 11.5 mph 27.6 mph N/A   Mostly Cloudy
1:02 AM 28.4 °F 15.8 °F 23.0 °F 80% 29.81 in 10.0 mi West 18.4 mph 31.1 mph N/A   Mostly Cloudy
1:22 AM 28.4 °F 15.4 °F 23.0 °F 80% 29.79 in 10.0 mi WNW 19.6 mph 34.5 mph N/A   Scattered Clouds
2:02 AM 28.4 °F 17.0 °F 23.0 °F 80% 29.81 in 10.0 mi West 15.0 mph 27.6 mph N/A   Clear
2:22 AM 28.4 °F - 23.0 °F 80% 29.81 in 10.0 mi Calm Calm - N/A   Clear
2:42 AM 28.4 °F 23.3 °F 23.0 °F 80% 29.80 in 10.0 mi WNW 4.6 mph - N/A   Clear
3:04 AM 28.4 °F - 23.0 °F 80% 29.80 in 10.0 mi Calm Calm - N/A   Clear
3:22 AM 28.4 °F - 23.0 °F 80% 29.80 in 10.0 mi Calm Calm - N/A   Clear
3:42 AM 26.6 °F - 23.0 °F 86% 29.81 in 10.0 mi Calm Calm - N/A   Clear
4:02 AM 28.4 °F - 23.0 °F 80% 29.80 in 10.0 mi Calm Calm - N/A   Clear
4:22 AM 28.4 °F 24.6 °F 23.0 °F 80% 29.80 in 10.0 mi North 3.5 mph - N/A   Clear
4:42 AM 26.6 °F - 23.0 °F 86% 29.80 in 10.0 mi Calm Calm - N/A   Clear
5:02 AM 28.4 °F - 23.0 °F 80% 29.79 in 10.0 mi Calm Calm - N/A   Clear
5:22 AM 28.4 °F - 23.0 °F 80% 29.80 in 10.0 mi Calm Calm - N/A   Clear
5:42 AM 26.6 °F - 23.0 °F 86% 29.81 in 10.0 mi Calm Calm - N/A   Clear
6:02 AM 26.6 °F 22.6 °F 23.0 °F 86% 29.82 in 10.0 mi NW 3.5 mph - N/A   Clear
6:42 AM 26.6 °F 22.6 °F 23.0 °F 86% 29.83 in 10.0 mi North 3.5 mph - N/A   Clear
7:02 AM 26.6 °F - 23.0 °F 86% 29.84 in 10.0 mi Calm Calm - N/A   Clear
7:24 AM 26.6 °F - 23.0 °F 86% 29.84 in 10.0 mi Calm Calm - N/A   Clear
7:42 AM 26.6 °F - 23.0 °F 86% 29.84 in 10.0 mi Calm Calm - N/A   Clear
8:02 AM 26.6 °F - 23.0 °F 86% 29.86 in 10.0 mi Calm Calm - N/A   Clear
8:42 AM 28.4 °F 23.3 °F 24.8 °F 86% 29.89 in 10.0 mi ESE 4.6 mph - N/A   Clear
9:04 AM 30.2 °F - 24.8 °F 80% 29.90 in 10.0 mi Calm Calm - N/A   Clear
9:22 AM 30.2 °F - 24.8 °F 80% 29.91 in 10.0 mi Calm Calm - N/A   Clear
9:42 AM 32.0 °F - 24.8 °F 75% 29.92 in 10.0 mi Calm Calm - N/A   Clear
10:02 AM 32.0 °F - 24.8 °F 75% 29.92 in 10.0 mi Calm Calm - N/A   Clear
10:22 AM 32.0 °F 27.5 °F 24.8 °F 75% 29.93 in 10.0 mi NNE 4.6 mph - N/A   Clear
10:42 AM 33.8 °F 29.6 °F 24.8 °F 70% 29.93 in 10.0 mi North 4.6 mph - N/A   Clear
11:02 AM 33.8 °F 29.6 °F 24.8 °F 70% 29.93 in 10.0 mi NNE 4.6 mph - N/A   Clear
11:22 AM 33.8 °F 30.8 °F 24.8 °F 70% 29.94 in 10.0 mi North 3.5 mph - N/A   Clear
11:42 AM 35.6 °F - 26.6 °F 70% 29.95 in 10.0 mi Calm Calm - N/A   Clear
12:02 PM 37.4 °F - 26.6 °F 65% 29.94 in 10.0 mi Calm Calm - N/A   Clear
12:22 PM 39.2 °F - 26.6 °F 61% 29.93 in 10.0 mi Calm Calm - N/A   Clear
12:42 PM 41.0 °F - 26.6 °F 57% 29.92 in 10.0 mi Calm Calm - N/A   Clear
1:02 PM 41.0 °F - 26.6 °F 57% 29.91 in 10.0 mi Calm Calm - N/A   Clear
1:22 PM 42.8 °F - 26.6 °F 53% 29.91 in 10.0 mi Calm Calm - N/A   Clear
1:42 PM 44.6 °F 43.1 °F 26.6 °F 49% 29.90 in 10.0 mi NNW 3.5 mph - N/A   Clear
2:02 PM 44.6 °F 42.2 °F 26.6 °F 49% 29.89 in 10.0 mi ESE 4.6 mph - N/A   Clear
2:22 PM 44.6 °F 40.7 °F 26.6 °F 49% 29.89 in 10.0 mi SE 6.9 mph - N/A   Clear
2:44 PM 44.6 °F 41.4 °F 28.4 °F 53% 29.89 in 10.0 mi SE 5.8 mph - N/A   Clear
3:24 PM 44.6 °F 42.2 °F 28.4 °F 53% 29.89 in 10.0 mi SE 4.6 mph - N/A   Clear
3:43 PM 44.6 °F 43.1 °F 28.4 °F 53% 29.89 in 10.0 mi SE 3.5 mph - N/A   Clear
4:02 PM 44.6 °F 43.1 °F 28.4 °F 53% 29.91 in 10.0 mi SE 3.5 mph - N/A   Clear
4:25 PM 44.6 °F 43.1 °F 28.4 °F 53% 29.91 in 10.0 mi SSE 3.5 mph - N/A   Clear
4:42 PM 42.8 °F - 28.4 °F 57% 29.93 in 10.0 mi Calm Calm - N/A   Clear
5:02 PM 42.8 °F - 28.4 °F 57% 29.93 in 10.0 mi Calm Calm - N/A   Clear
5:22 PM 41.0 °F 39.0 °F 28.4 °F 61% 29.94 in 10.0 mi South 3.5 mph - N/A   Clear
5:42 PM 41.0 °F - 28.4 °F 61% 29.95 in 10.0 mi Calm Calm - N/A   Clear
6:02 PM 39.2 °F - 28.4 °F 65% 29.95 in 10.0 mi Calm Calm - N/A   Clear
6:22 PM 39.2 °F - 28.4 °F 65% 29.96 in 10.0 mi Calm Calm - N/A   Clear
6:42 PM 39.2 °F - 28.4 °F 65% 29.96 in 10.0 mi Calm Calm - N/A   Clear
7:02 PM 37.4 °F - 28.4 °F 70% 29.97 in 10.0 mi Calm Calm - N/A   Clear
7:22 PM 37.4 °F - 28.4 °F 70% 29.97 in 10.0 mi Calm Calm - N/A   Clear
7:42 PM 37.4 °F - 28.4 °F 70% 29.97 in 10.0 mi Calm Calm - N/A   Clear
8:04 PM 37.4 °F - 28.4 °F 70% 29.97 in 10.0 mi Calm Calm - N/A   Clear
8:22 PM 37.4 °F - 28.4 °F 70% 29.97 in 10.0 mi Calm Calm - N/A   Clear
8:42 PM 37.4 °F - 24.8 °F 60% 29.97 in 10.0 mi Calm Calm - N/A   Clear
9:02 PM 35.6 °F - 26.6 °F 70% 29.98 in 10.0 mi Calm Calm - N/A   Clear
9:22 PM 35.6 °F - 17.6 °F 48% 29.97 in 10.0 mi Calm Calm - N/A   Clear
9:42 PM 35.6 °F - 17.6 °F 48% 29.98 in 10.0 mi Calm Calm - N/A   Clear
10:04 PM 33.8 °F - 19.4 °F 56% 29.98 in 10.0 mi Calm Calm - N/A   Clear
10:22 PM 32.0 °F - 23.0 °F 69% 29.99 in 10.0 mi Calm Calm - N/A   Clear
10:42 PM 33.8 °F - 23.0 °F 65% 30.00 in 10.0 mi Calm Calm - N/A   Clear
11:02 PM 35.6 °F - 23.0 °F 60% 30.00 in 10.0 mi Calm Calm - N/A   Clear
11:24 PM 33.8 °F - 26.6 °F 75% 29.99 in 10.0 mi Calm Calm - N/A   Clear
11:42 PM 33.8 °F - 26.6 °F 75% 29.99 in 10.0 mi Calm Calm - N/A   Clear